• în România
  • Lista ţărilor
  • Pe 7 zile
  • Temperatura apei
  • Hartă satelitară
  • Meteo pe hartă
  • Widget-uri
  • user-avatar
    Intrare

    Meteo pe oră la Pushkino

    Astăzi, 20 August, Luni

    Timp Temperatura Precipitaţii Vânt Presiune Umiditate
    00:00 +16°C° 0 mm 1 m/s 758 mmHg 62%
    01:00 +15°C° 0 mm 1 m/s 758 mmHg 63%
    02:00 +15°C° 0 mm 1 m/s 758 mmHg 65%
    03:00 +15°C° 0 mm 1 m/s 758 mmHg 67%
    04:00 +15°C° 0 mm 1 m/s 758 mmHg 67%
    05:00 +15°C° 0 mm 1 m/s 758 mmHg 67%
    06:00 +15°C° 0 mm 1 m/s 758 mmHg 67%
    07:00 +18°C° 0 mm 1 m/s 759 mmHg 61%
    08:00 +20°C° 0 mm 1 m/s 759 mmHg 56%
    09:00 +22°C° 0 mm 1 m/s 759 mmHg 50%
    10:00 +23°C° 0 mm 1 m/s 758 mmHg 47%
    11:00 +24°C° 0 mm 2 m/s 758 mmHg 43%
    12:00 +25°C° 0 mm 2 m/s 758 mmHg 40%
    13:00 +26°C° 0 mm 2 m/s 758 mmHg 38%
    14:00 +26°C° 0 mm 2 m/s 757 mmHg 36%
    15:00 +27°C° 0 mm 2 m/s 757 mmHg 34%
    16:00 +27°C° 0 mm 2 m/s 757 mmHg 36%
    17:00 +27°C° 0 mm 1 m/s 757 mmHg 38%
    18:00 +26°C° 0 mm 1 m/s 756 mmHg 39%
    19:00 +25°C° 0 mm 1 m/s 756 mmHg 41%
    20:00 +23°C° 0 mm 1 m/s 757 mmHg 44%
    21:00 +22°C° 0 mm 1 m/s 757 mmHg 46%
    22:00 +22°C° 0 mm 1 m/s 757 mmHg 47%
    23:00 +21°C° 0 mm 1 m/s 757 mmHg 48%

    Mâine, 21 August, Marţi

    Timp Temperatura Precipitaţii Vânt Presiune Umiditate
    00:00 +21°C° 0 mm 1 m/s 756 mmHg 49%
    01:00 +19°C° 0 mm 2 m/s 756 mmHg 50%
    02:00 +19°C° 0 mm 2 m/s 756 mmHg 52%
    03:00 +19°C° 0 mm 2 m/s 756 mmHg 53%
    04:00 +19°C° 0 mm 2 m/s 756 mmHg 54%
    05:00 +19°C° 0 mm 2 m/s 756 mmHg 55%
    06:00 +19°C° 0 mm 2 m/s 756 mmHg 57%
    07:00 +21°C° 0 mm 2 m/s 756 mmHg 51%
    08:00 +24°C° 0 mm 2 m/s 756 mmHg 45%
    09:00 +26°C° 0 mm 3 m/s 756 mmHg 40%
    10:00 +27°C° 0 mm 3 m/s 756 mmHg 37%
    11:00 +28°C° 0 mm 4 m/s 756 mmHg 34%
    12:00 +30°C° 0 mm 4 m/s 756 mmHg 31%
    13:00 +30°C° 0 mm 4 m/s 755 mmHg 30%
    14:00 +30°C° 0 mm 4 m/s 755 mmHg 29%
    15:00 +32°C° 0 mm 5 m/s 754 mmHg 28%
    16:00 +30°C° 0 mm 4 m/s 754 mmHg 30%
    17:00 +29°C° 0 mm 3 m/s 754 mmHg 33%
    18:00 +28°C° 0 mm 3 m/s 754 mmHg 35%
    19:00 +27°C° 0 mm 3 m/s 754 mmHg 37%
    20:00 +25°C° 0 mm 3 m/s 754 mmHg 39%
    21:00 +24°C° 0 mm 2 m/s 754 mmHg 41%
    22:00 +24°C° 0 mm 3 m/s 753 mmHg 42%
    23:00 +22°C° 0 mm 3 m/s 753 mmHg 42%

    Poimâine, 22 August, Miercuri

    Timp Temperatura Precipitaţii Vânt Presiune Umiditate
    00:00 +21°C° 0 mm 3 m/s 753 mmHg 43%
    01:00 +21°C° 0 mm 3 m/s 753 mmHg 43%
    02:00 +21°C° 0 mm 3 m/s 753 mmHg 43%
    03:00 +20°C° 0 mm 3 m/s 752 mmHg 43%
    04:00 +20°C° 0 mm 4 m/s 752 mmHg 43%
    05:00 +20°C° 0 mm 4 m/s 752 mmHg 42%
    06:00 +20°C° 0 mm 4 m/s 752 mmHg 42%
    07:00 +22°C° 0 mm 5 m/s 752 mmHg 38%
    08:00 +25°C° 0 mm 5 m/s 752 mmHg 33%
    09:00 +28°C° 0 mm 6 m/s 752 mmHg 29%
    10:00 +28°C° 0 mm 6 m/s 752 mmHg 32%
    11:00 +28°C° 0 mm 6 m/s 752 mmHg 35%
    12:00 +28°C° 0 mm 7 m/s 752 mmHg 37%
    13:00 +26°C° 0,2 mm 6 m/s 752 mmHg 49%
    14:00 +23°C° 0,2 mm 6 m/s 752 mmHg 61%
    15:00 +21°C° 0,2 mm 5 m/s 752 mmHg 73%
    16:00 +21°C° 0 mm 5 m/s 752 mmHg 67%
    17:00 +22°C° 0 mm 4 m/s 753 mmHg 61%
    18:00 +22°C° 0 mm 4 m/s 753 mmHg 55%
    19:00 +21°C° 0 mm 4 m/s 754 mmHg 57%
    20:00 +20°C° 0 mm 4 m/s 754 mmHg 59%
    21:00 +18°C° 0 mm 4 m/s 755 mmHg 61%
    22:00 +18°C° 0 mm 4 m/s 755 mmHg 63%
    23:00 +17°C° 0 mm 3 m/s 755 mmHg 65%

    23 August, Joi

    Timp Temperatura Precipitaţii Vânt Presiune Umiditate
    00:00 +16°C° 0 mm 3 m/s 756 mmHg 66%
    01:00 +16°C° 0 mm 3 m/s 756 mmHg 67%
    02:00 +14°C° 0 mm 3 m/s 756 mmHg 68%
    03:00 +13°C° 0 mm 3 m/s 757 mmHg 68%
    04:00 +13°C° 0 mm 3 m/s 757 mmHg 68%
    05:00 +13°C° 0 mm 3 m/s 757 mmHg 69%
    06:00 +13°C° 0 mm 3 m/s 758 mmHg 69%
    07:00 +16°C° 0 mm 3 m/s 758 mmHg 60%
    08:00 +18°C° 0 mm 4 m/s 758 mmHg 51%
    09:00 +20°C° 0 mm 5 m/s 759 mmHg 43%
    10:00 +20°C° 0 mm 5 m/s 759 mmHg 39%
    11:00 +21°C° 0 mm 5 m/s 759 mmHg 36%
    12:00 +22°C° 0 mm 5 m/s 759 mmHg 32%
    13:00 +22°C° 0 mm 4 m/s 759 mmHg 32%
    14:00 +23°C° 0 mm 4 m/s 759 mmHg 31%
    15:00 +23°C° 0 mm 4 m/s 759 mmHg 30%
    16:00 +22°C° 0 mm 4 m/s 759 mmHg 33%
    17:00 +22°C° 0 mm 3 m/s 759 mmHg 36%
    18:00 +21°C° 0 mm 3 m/s 759 mmHg 39%
    19:00 +20°C° 0 mm 3 m/s 759 mmHg 43%
    20:00 +18°C° 0 mm 2 m/s 759 mmHg 48%
    21:00 +17°C° 0 mm 2 m/s 760 mmHg 52%
    22:00 +16°C° 0 mm 2 m/s 760 mmHg 54%
    23:00 +16°C° 0 mm 2 m/s 760 mmHg 57%

    24 August, Vineri

    Timp Temperatura Precipitaţii Vânt Presiune Umiditate
    00:00 +15°C° 0 mm 2 m/s 760 mmHg 59%
    01:00 +15°C° 0 mm 2 m/s 760 mmHg 61%
    02:00 +14°C° 0 mm 1 m/s 760 mmHg 63%
    03:00 +14°C° 0 mm 1 m/s 760 mmHg 65%
    04:00 +14°C° 0 mm 1 m/s 760 mmHg 65%
    05:00 +14°C° 0 mm 1 m/s 760 mmHg 65%
    06:00 +14°C° 0 mm 1 m/s 760 mmHg 66%
    07:00 +16°C° 0 mm 1 m/s 760 mmHg 59%
    08:00 +19°C° 0 mm 1 m/s 760 mmHg 53%
    09:00 +19°C° 0 mm 2 m/s 760 mmHg 46%
    10:00 +20°C° 0 mm 2 m/s 760 mmHg 41%
    11:00 +23°C° 0 mm 2 m/s 760 mmHg 37%
    12:00 +24°C° 0 mm 2 m/s 760 mmHg 32%
    13:00 +24°C° 0 mm 2 m/s 759 mmHg 30%
    14:00 +25°C° 0 mm 2 m/s 759 mmHg 29%
    15:00 +25°C° 0 mm 3 m/s 759 mmHg 27%
    16:00 +25°C° 0 mm 2 m/s 759 mmHg 29%
    17:00 +24°C° 0 mm 2 m/s 759 mmHg 32%
    18:00 +24°C° 0 mm 2 m/s 758 mmHg 34%
    19:00 +21°C° 0 mm 2 m/s 759 mmHg 37%
    20:00 +20°C° 0 mm 2 m/s 759 mmHg 40%
    21:00 +19°C° 0 mm 2 m/s 759 mmHg 43%
    22:00 +18°C° 0 mm 2 m/s 759 mmHg 46%
    23:00 +17°C° 0 mm 2 m/s 759 mmHg 49%

    25 August, Sâmbătă

    Timp Temperatura Precipitaţii Vânt Presiune Umiditate
    00:00 +17°C° 0 mm 2 m/s 759 mmHg 52%
    01:00 +17°C° 0 mm 2 m/s 759 mmHg 55%
    02:00 +16°C° 0 mm 2 m/s 759 mmHg 58%
    03:00 +16°C° 0 mm 2 m/s 759 mmHg 61%
    04:00 +16°C° 0 mm 2 m/s 759 mmHg 63%
    05:00 +16°C° 0 mm 2 m/s 759 mmHg 65%
    06:00 +16°C° 0 mm 2 m/s 759 mmHg 66%
    07:00 +18°C° 0 mm 2 m/s 759 mmHg 60%
    08:00 +20°C° 0 mm 2 m/s 759 mmHg 54%
    09:00 +23°C° 0 mm 2 m/s 759 mmHg 48%
    10:00 +24°C° 0 mm 2 m/s 759 mmHg 44%
    11:00 +25°C° 0 mm 2 m/s 759 mmHg 40%
    12:00 +26°C° 0 mm 2 m/s 758 mmHg 36%
    13:00 +27°C° 0 mm 2 m/s 758 mmHg 35%
    14:00 +27°C° 0 mm 2 m/s 758 mmHg 33%
    15:00 +28°C° 0 mm 2 m/s 757 mmHg 32%
    16:00 +27°C° 0 mm 2 m/s 757 mmHg 35%
    17:00 +27°C° 0 mm 2 m/s 757 mmHg 37%
    18:00 +26°C° 0 mm 2 m/s 757 mmHg 40%
    19:00 +25°C° 0 mm 2 m/s 757 mmHg 44%
    20:00 +23°C° 0 mm 2 m/s 757 mmHg 47%
    21:00 +21°C° 0 mm 2 m/s 757 mmHg 51%
    22:00 +21°C° 0 mm 2 m/s 757 mmHg 54%
    23:00 +20°C° 0 mm 2 m/s 757 mmHg 57%
    Arată mai mult